Regional Weather Roundup
Issued by NWS

Home | Current Version | Previous Version | Graphics & Text | Print | Product List | Glossary On
Versions: 1 2 3 4 5 6 7 8 9 10 11 12 13 14 15 16 17 18 19 20 21 22 23 24 25 26 27 28 29 30 31 32 33 34 35 36 37 38 39 40 41 42 43 44 45 46 47 48 49 50
207
ASUS45 KPSR 031310
RWRAZ

ARIZONA HOURLY REGIONAL WEATHER ROUNDUP
NATIONAL WEATHER SERVICE PHOENIX AZ
600 AM MST SAT DEC 03 2016

NOTE: FAIR INDICATES FEW OR NO CLOUDS BELOW 12,000 FEET WITH NO
SIGNIFICANT WEATHER AND/OR OBSTRUCTIONS TO VISIBILITY.

AZZ001>003-036-031400-
NORTHWEST ARIZONA

CITY           SKY/WX    TMP DP  RH WIND       PRES   REMARKS
BULLHEAD CITY  CLEAR     48  16  27 N24G32    30.14R
KINGMAN        CLEAR     32  12  43 E13       30.13R WCI  22
$$

AZZ004>008-015-016-018-031400-
NORTH CENTRAL ARIZONA

CITY           SKY/WX    TMP DP  RH WIND       PRES   REMARKS
GRAND CANYON   CLEAR    N/A N/A N/A NE8       30.11R
PRESCOTT       CLEAR     25  18  74 NW7       30.06R WCI  17
FLAGSTAFF      CLEAR     24  14  65 NE17      30.04S WCI  11
PAYSON         CLEAR     34  18  51 NE14      30.01R WCI  24
PAGE           CLEAR     28  10  46 CALM      30.17R
$$

AZZ009>014-017-031400-
NORTHEAST ARIZONA

CITY           SKY/WX    TMP DP  RH WIND       PRES   REMARKS
WINSLOW        PTCLDY    26  15  63 NW13      30.12R WCI  15
SAINT JOHNS    CLEAR     18  15  88 W5        30.06R WCI  11
WINDOW ROCK    PTCLDY    17  12  80 SE3       30.10R
SHOW LOW       FLURRIES  16  14  93 NE3       30.06R
$$

AZZ023-031400-
GREATER PHOENIX AREA

CITY           SKY/WX    TMP DP  RH WIND       PRES   REMARKS
PHOENIX        CLEAR     44  29  55 SW3       29.92R
BUCKEYE        CLEAR     45  23  42 N7        29.96R
LUKE AFB       CLEAR     42  29  58 N5        29.92R
DEER VALLEY    CLEAR     50  21  32 N10       29.91R
SCOTTSDALE     CLEAR     51  21  30 W9        29.93R
MESA-FALCON    CLEAR    N/A N/A N/A N12       29.89
MESA-GATEWAY   CLEAR     36  28  75 S5        29.91S WCI  32
CHANDLER       CLEAR     50  23  34 N15       29.91
$$

AZZ027-028-031400-
SOUTHWEST MARICOPA COUNTY AND PINAL COUNTY

CITY           SKY/WX    TMP DP  RH WIND       PRES   REMARKS
CASA GRANDE    NOT AVBL
$$

AZZ503-504-507>509-031400-
SOUTHEAST ARIZONA

CITY           SKY/WX    TMP DP  RH WIND       PRES   REMARKS
TUCSON         CLEAR     40  23  50 CALM      29.90R
DAVIS-MONTHAN  PTCLDY    38  26  62 NW6       29.88R WCI  33
RYAN FIELD     CLEAR     37  23  56 S5        29.91  WCI  34
NOGALES        MOCLDY    38  34  85 S6        29.85S WCI  33
SIERRA VISTA   CLOUDY    39  35  86 SE1       29.89S
DOUGLAS        CLOUDY    38  37  97 CALM      29.88S
SAFFORD        PTCLDY    43  39  86 S10       29.92F
$$

AZZ020-021-025-026-031-031400-
SOUTHWEST ARIZONA

CITY           SKY/WX    TMP DP  RH WIND       PRES   REMARKS
YUMA           CLEAR     53  16  23 N14G24    30.00R
$$

CAZ031-033-041-043-047-048-061-031400-
SOUTHERN CALIFORNIA

CITY           SKY/WX    TMP DP  RH WIND       PRES   REMARKS
DOWNTOWN L.A.  CLEAR     44  23  43 CALM      30.09R
L.A. AIRPORT   CLEAR     48  20  32 NE5       30.10R
SAN DIEGO      CLEAR     49  17  28 CALM      30.07F
BURBANK        CLEAR     49  12  22 E7        30.08R
ONTARIO        PTCLDY    47  12  24 CALM      30.07S
RIVERSIDE      CLEAR     54  10  17 NE12      30.11S
PALM SPRINGS   CLEAR     54  10  17 VRB5      30.15R
EL CENTRO NAS  CLEAR     55  14  19 N22       30.08R
IMPERIAL       CLEAR     53  26  35 N13       30.06R
BLYTHE         CLEAR     50  15  24 N16       30.07R
NEEDLES        CLEAR     50  14  23 N20G28    30.13R
$$

NVZ020-UTZ003-031400-
SOUTHERN NEVADA-UTAH

CITY           SKY/WX    TMP DP  RH WIND       PRES   REMARKS
LAS VEGAS      CLEAR     44   9  23 N12G25    30.21F
SALT LAKE CITY MOCLDY    27  19  72 SE6       30.25F WCI  20
$$

NMZ009-TXZ055-031400-
NEW MEXICO-WEST TEXAS

CITY           SKY/WX    TMP DP  RH WIND       PRES   REMARKS
ALBUQUERQUE    FLURRIES  33  30  88 NW6       30.09R WCI  28
EL PASO        CLOUDY    41  35  79 N17       29.93R
$$


........................KEY........................
SKY/WX - SKY CONDITION/WEATHER
TMP    - TEMPERATURE IN FAHRENHEIT
DP     - DEW POINT IN FAHRENHEIT
RH     - RELATIVE HUMIDITY IN PERCENT
WIND   - DIRECTION AND SPEED IN MILES PER HOUR (MPH)
VRB    - VARIABLE WIND DIRECTION
PRES   - MEAN SEA LEVEL PRESSURE IN INCHES OF MERCURY
         F - FALLING PRESSURE   R - RISING PRESSURE
         S - STEADY PRESSURE
VSB    - VISIBILITY IN MILES
HX     - HEAT INDEX IN FAHRENHEIT
WCI    - WIND CHILL INDEX IN FAHRENHEIT
TC     - TEMPERATURE IN CELSIUS WHICH IS ALSO KNOWN AS
         TEMPERATURE IN CENTIGRADE
AFB    - AIR FORCE BASE
         LUKE AFB IS LUKE AIR FORCE BASE
         DAVIS-MONTHAN IS DAVIS-MONTHAN AIR FORCE BASE
NAS    - NAVAL AIR STATION
         EL CENTRO NAS IS EL CENTRO NAVAL AIR STATION
N/A    - NOT AVAILABLE





USA.gov is the U.S. government's official web portal to all federal, state and local government web resources and services.